map of LGEL home
LGEL - Airport
Location
City:  Elefsis, Greece
ICAO:LGEL

Details
Type:Airport (Aerodrome, Airfield)
Use:Military
Latitude:3803'50"N (38.063831)
Longitude:2333'22"E (23.556011)
Datum:WGS 1984
Elevation:143 ft (44 m)
Variation:4.64E (WMM2015v2 magnetic declination)
0.11 annual change
Runways:1
Longest:8985 × 131 ft (2739 × 40 m), paved

Time
Time Zone:UTC+2 (DST+3)
Local Time:

Weather
METAR:LGEL 041350Z 10007KT 9999 FEW012 SCT025 BKN070 16/10 Q1016
TAF:LGEL 041100Z 0412/0512 08015KT 9999 FEW012 SCT025
BECMG 0503/0505 09015G25KT PROB30
TEMPO 0419/0503 5000 RA SCT012 BKN025

Related Locations
Nearby:
Farthest:RMT: 11346 mi / 18260 km
Rimatara [Rimatara Airport], PF

Find:

   beyond  
but within

Other Information
Maps:
NOTAMs:
Links:
Sources:

  
  • flag of Greece
  

Airport Diagram

Airport diagram for LGEL

Larger airport diagram (OBSOLETE) from NGA

Sectional Chart

Flight Planning
at skyvector.com

Satellite Image

Google Maps Satellite view

 

Copyright © 2004-2019 Karl L. Swartz. All rights reserved.
The Great Circle Mapper name and logo are trademarks of the Great Circle Mapper.
All other trademarks mentioned herein belong to their respective owners.
Please see credits for attibutions and further copyright information.

  Follow gcmap on Facebook Follow gcmap on Twitter GCmap on LinkedIn

hCard Microformat

Geo Microformat